Other Surface Observations
Issued by NWS

Home | Current Version | Previous Version | Text Only | Print | Product List | Glossary On
Versions: 1 2 3 4 5 6 7 8 9 10 11 12 13 14 15 16 17 18 19 20 21 22 23 24 25 26 27 28 29 30 31 32 33 34 35 36 37 38 39 40 41 42 43 44 45 46 47 48 49 50
363
SXUS52 KTAE 071118
OSOTAE
OSOTAE
North Florida/South Alabama/Southwest Georgia Weather Roundup
National Weather Service Tallahassee Florida
600 AM EST WED DEC 07 2016

Note: "fair" indicates few or no clouds below 12,000 feet with no
significant weather and/or obstructions to visibility.

!FLZ017-115-028-034-025-071200
...North Florida...

CITY           SKY/WX    TMP DP  RH WIND       PRES   REMARKS
TALLAHASSEE    MOCLDY    53  53 100 W3        30.03R
APALACHICOLA   CLOUDY    58  56  93 N7        30.03R
PERRY          CLOUDY    51  50  97 CALM      30.03R FOG
CROSS CITY     CLOUDY    52  52 100 CALM      30.02R
JACKSONVILLE   CLOUDY    55  55 100 W3        30.00R
$$

!FLZ112-006-005-002-011-071200
...Florida Panhandle...

CITY           SKY/WX    TMP DP  RH WIND       PRES   REMARKS
MARIANNA       CLOUDY    56  52  86 N3        30.03R
BONIFAY        CLOUDY    55  52  89 N5        30.04R
PANAMA CITY NW CLOUDY    54  52  93 CALM      30.03R
TYNDALL AFB    PTCLDY    54  51  90 N3        30.04R
TYND DRONE APT NOT AVBL
DE FUNIAK SPR  NOT AVBL
EGLIN AFB      MOCLDY    54  51  89 NW2       30.03R
DESTIN         CLOUDY    58  53  84 N3        30.03R
HURLBURT       CLOUDY    55  51  87 NW3       30.02S
CRESTVIEW      CLOUDY    55  50  83 CALM      30.04R
PENSACOLA      CLOUDY    55  50  83 N3        30.04R
$$

!ALZ063-066-071200
...South Alabama...

CITY           SKY/WX    TMP DP  RH WIND       PRES   REMARKS
DOTHAN         CLOUDY    53  51  93 N7        30.05S
OZARK CAIRNS   CLOUDY    53  49  86 N3        30.02S
FT RUCKER HELI CLOUDY    54  49  83 CALM      30.02R
RUCKER HELI 3  NOT AVBL
RUCKER HELI 2  CLOUDY    55  49  80 N3        30.02S
FLORALA APT    CLOUDY    53  49  86 N3        30.04S
ANDALUSIA      CLOUDY    56  49  77 CALM      30.03R
TROY           CLOUDY    52  47  83 NE5       30.03S
EUFALA         CLOUDY    55  48  77 CALM      30.02R
MOBILE         CLOUDY    53  49  86 N5        30.06R
$$

!GAZ120>161-071200
...Southwest and South Central Georgia...

CITY           SKY/WX    TMP DP  RH WIND       PRES   REMARKS
THOMASVILLE    CLOUDY    59  54  82 N6        30.03R
BAINBRIDGE     CLOUDY    55  50  82 N5        30.03S
MOODY AFB      CLOUDY    55  53  92 NW5       30.00R
VALDOSTA       MOCLDY    52  52 100 CALM      30.01R
MOULTRIE       CLOUDY    57  52  82 CALM      30.02R
BLAKELY        CLOUDY    57  50  77 CALM      30.03R
ALBANY         CLOUDY    56  50  80 NW5       30.03S
TIFTON         CLOUDY    56  52  86 NW6       30.01R
FITZGERALD     NOT AVBL
CORDELE        NOT AVBL
AMERICUS       CLOUDY    54  46  76 NW5       30.03R
HOMERVILLE     FAIR      50  50 100 CALM      30.02R
$$

!GMZ750-755-770-775-071200
...Coastal and Buoy Obs...

STATION/POSITION TIME  TEMP    WIND        PRES    VSBY  WAVE
                       AIR SEA DIR/SP/G                  HT/PER
                 (UTC) (F)     (DEG/KT/KT) (MB)    (MI)  (FT/S)
KEATON BEACH     1100   59     330/  2/  3 1016.3R
CEDAR KEY        1100   63     360/  2/  3 1017.0R
C TOWER          1100   62      40/ 10/ 13 1017.4R
APALACHICOLA BUO 1050   71 74  330/  8/ 10 1016.0R         5/ 7
PANAMA CITY BUOY 1050   68 75              1016.6R         4/ 8
MOBILE BUOY      1100   62 75   10/ 10/ 14 1017.4
ORANGE BCH AL BU 1050   56 68  340/  4/  8 1017.4R         2/ 7
$$




USA.gov is the U.S. government's official web portal to all federal, state and local government web resources and services.